DECAYED

STARLINK-30163, 57309 (Decayed)

Orbit data source: Space-Track

STARLINK-30163, 57309 was a payload satellite owned by SpaceX/Seattle (US) in LEO that was launched on Mon, 10 Jul 2023 UTC via an FALCON 9 launch vehicle from the Air Force Eastern Test Range (AFETR). Payload-class satellites include a variety of spacecraft equipped with specific instruments for various scientific and technological missions. These include communications satellites like Starlink; space stations such as the ISS; scientific satellites like the Hubble; Earth observation satellites from companies like Planet Labs, Umbra, and HawkEye 360; GPS; miniature CubeSats for education and research; and military/defense satellites.

Not visible in the next 10 days
Identifier
57309, 2023-096V
Orbit
Decayed
Country
Flag of USUS
Related business
Manufacturer
SpaceX/Seattle
Mission
Decayed Commercial Communications
Bus & Motor
STARLINK V2M, Unknown motor
Mass
730 kg wet, ~700 kg dry
Launch date (UTC)
2023-07-10 (3 years ago)
Launch vehicle
FALCON 9
Launch site
Air Force Eastern Test Range (AFETR)
Object type
Payload
Rocket body
Debris
Shape & HBR
Box + 2 Pan, 17.7 m
Radar Cross Section
33.884 m², Large (>1 m²)

Expand to show TLE details & history
Last TLE update: 8 months ago

TLE from 8 months ago
0 STARLINK-30163
1 57309U 23096V   25354.01916514  .07111831  90068-5  13961-2 0  9992
2 57309  42.9743 210.5486 0010158 229.3767 130.6240 16.30471755135714
Epoch: 2025-12-20T00:27Z
TLE epoch observation values (Epoch: 2025-12-20T00:27:35.868Z)
Latitude
0.00006°
Longitude
114.79723°
Altitude
195.383 km
Speed
7.789 km/s
True Right ascension
14h 02m 11s
True Declination
0° 00' 00"
Sunlit
Object was in daylight at epoch
Visualization orbit readout
Latitude
Unknown
Longitude
Unknown
Altitude
Unknown
Speed
Unknown
Apparent Right ascension
Unknown
Apparent Declination
Unknown
Sunlit
N/A
Visualization observer readout
Local Sidereal Time
19:23:30
Azimuth
Unknown
Elevation
Unknown
Doppler factor
Unknown
Orbital elements
Apogee altitude
199.983 km
Perigee altitude
186.633 km
Semi-major axis
6,571.445 km
Eccentricity
0.00102
Inclination
42.9743°
RAAN
210.5486°
Arg. of periapsis
229.3767°
True anomaly
130.71228°
Mean anomaly
130.624°
Eccentric anomaly
130.66815°
Mean motion
4.07429 °/min
Orbital period
88.36 mins
BSTAR
0.0013961
Loading maneuver chart data...
Computing Atmospheric mass density...

Documentation

Showing up to 5 results
|